カタログに戻る

TITAN 3C TRANSTAGE DEB

運用中LEO
NORAD 1964·DEBRIS·🇺🇸 United States

打ち上げ Oct 15, 1965 から Cape Canaveral Space Force Station

Loading…

次のパス (今後24時間)

TLE

最新Source: Space-Track

元期: Sep 14, 2026, 14:24 UTC

1 01964U 65082GZ  26257.60012938  .00000961  00000-0  32229-3 0  9999
2 01964  32.2012   7.0886 0174839 254.5835 103.5425 14.26502164130426

AllMySatでTITAN 3C TRANSTAGE DEBをリアルタイム追跡

Download on the App Store